Max Valier Sat
1 42778U 17036P 22286.34604780 .00015422 00000-0 55049-3 0 9997
2 42778 97.1928 323.4522 0008472 265.0317 94.9956 15.28916084294902
Pegasus
1 42784U 17036V 22286.36277535 .00018927 00000-0 62397-3 0 9997
2 42784 97.1867 324.5791 0007676 263.5891 96.4477 15.31465415295048
NUDATSat
1 42787U 17036Y 22286.82757199 .00045068 00000-0 11830-2 0 9991
2 42787 97.1892 330.1543 0006555 249.9106 110.1415 15.38478856295269
SUCHAI 1
1 42788U 17036Z 22286.52913243 .00023185 00000-0 70784-3 0 9993
2 42788 97.1864 326.7322 0006988 254.1019 105.9454 15.33887511295268
SKCUBE
1 42789U 17036AA 22286.07184168 .00023445 00000-0 74112-3 0 9998
2 42789 97.1862 325.5988 0007094 258.6425 101.4021 15.32775131295074
VZLUSAT 1
1 42790U 17036AB 22286.39432302 .00037836 00000-0 10050-2 0 9990
2 42790 97.1881 329.6644 0006024 241.2580 118.8061 15.38155034295349
VENTA 1
1 42791U 17036AC 22286.48644856 .00016342 00000-0 53307-3 0 9992
2 42791 97.1874 325.7699 0006855 258.1859 101.8614 15.31842009295116
Robusta 1B
1 42792U 17036AD 22286.37216850 .00023783 00000-0 73357-3 0 9994
2 42792 97.1861 326.5562 0006620 255.9748 104.0759 15.33558796295173
D-SAT
1 42794U 17036AF 22286.44878199 .00004189 00000-0 35089-3 0 9993
2 42794 97.4559 285.6901 0123243 50.5332 310.6713 14.93147468289086
TechnoSat
1 42829U 17042E 22286.52319392 .00002450 00000-0 24552-3 0 9995
2 42829 97.4064 133.7145 0013302 338.8900 21.1769 14.92147805285698
AO-91
1 43017U 17073E 22286.41055882 .00004445 00000-0 33136-3 0 9992
2 43017 97.6572 175.7419 0246261 160.9540 200.1087 14.82249445264589
PICSAT
1 43132U 18004X 22286.45925277 .00022311 00000-0 66515-3 0 9992
2 43132 97.3627 2.3637 0005931 299.9783 60.0871 15.34657784264481
AO-92
1 43137U 18004AC 22286.18250516 .00019167 00000-0 62693-3 0 9992
2 43137 97.3584 0.3796 0006065 309.9694 50.1015 15.31729768264359
TianYi 2
1 43155U 18008A 22286.92571302 .00015371 00000-0 77804-3 0 9990
2 43155 97.3398 341.5438 0017111 91.5862 83.0082 15.16968232261226
Zhou Enlai
1 43156U 18008B 22286.87926612 .00016806 00000-0 85493-3 0 9990
2 43156 97.3445 341.4131 0014534 93.9590 21.1082 15.16809951261145
TianYi 6
1 43158U 18008D 22286.40361567 .00014133 00000-0 74637-3 0 9992
2 43158 97.3402 338.6784 0014120 95.1966 275.5776 15.15533058260969
S-Net D
1 43186U 18014G 22286.25201726 .00003026 00000-0 25876-3 0 9993
2 43186 97.6456 189.6950 0009463 263.6850 96.3295 14.98336963256550
S-Net B
1 43187U 18014H 22286.38587942 .00002896 00000-0 24783-3 0 9995
2 43187 97.6451 189.7721 0009514 262.8370 97.1771 14.98334541256578
S-Net A
1 43188U 18014J 22286.65331943 .00002841 00000-0 24323-3 0 9994
2 43188 97.6455 190.1044 0009506 261.9437 98.0707 14.98335936256615
S-Net C
1 43189U 18014K 22286.32033691 .00003088 00000-0 26399-3 0 9997
2 43189 97.6450 189.6947 0009514 263.0160 96.9981 14.98330188255110
FMN 1
1 43192U 18015A 22286.45914510 .00075756 00000-0 15538-2 0 9997
2 43192 97.5483 75.3841 0009579 322.2746 110.8432 15.45731048261625
Shaonian Xing
1 43199U 18015H 22286.82348138 .00038647 00000-0 10169-2 0 9995
2 43199 97.5281 69.6522 0012141 342.4662 157.6094 15.38388032261615
SurfSat
1 43614U 18070B 22286.51119195 .00087832 00000-0 85227-3 0 9991
2 43614 93.0113 149.1150 0004704 260.2056 99.8682 15.66059068229465
CP-7 DAVE
1 43615U 18070C 22286.14116542 .00079731 00000-0 86141-3 0 9999
2 43615 93.0101 148.6609 0005301 272.1179 87.9481 15.63354878229355
CubeBel-1
1 43666U 18083E 22286.89598141 .00018895 00000-0 74981-3 0 9993
2 43666 97.4127 314.3401 0010912 278.0009 159.9141 15.25348954219527
Changshagaoxin
1 43669U 18083H 22286.87636416 .00018103 00000-0 75637-3 0 9993
2 43669 97.4089 309.9318 0007431 276.9455 188.7178 15.23652791219321
Ten-Koh
1 43677U 18084G 22286.64263907 .00002930 00000-0 29866-3 0 9993
2 43677 97.9810 57.8980 0014561 239.6978 120.2800 14.91415463215291
PO-101
1 43678U 18084H 22286.73232202 .00002114 00000-0 21224-3 0 9992
2 43678 97.9875 61.5131 0008595 253.3410 106.6883 14.92381591215493
IRVINE 01
1 43693U 18088D 22286.27054000 .00117870 00000-0 22061-2 0 9995
2 43693 85.0266 230.4628 0012335 56.9075 303.3363 15.48194035218377
QO-100
1 43700U 18090A 22286.60687231 .00000142 00000-0 00000 0 0 9991
2 43700 0.0180 180.1709 0002754 57.9314 28.3105 1.00273070 14451
Reaktor Hello World
1 43743U 18096AA 22286.50416342 .00022928 00000-0 63228-3 0 9997
2 43743 97.3447 6.0364 0013724 0.5123 359.6133 15.37019617216070
MinXSS-2
1 43758U 18099A 22286.44038796 .00004683 00000-0 40034-3 0 9990
2 43758 97.6113 351.4868 0014308 226.6242 133.3790 14.98031852210764
AO-95
1 43770U 18099N 22286.45795010 .00004592 00000-0 40334-3 0 9996
2 43770 97.6081 349.7061 0012675 235.2491 124.7538 14.97000385210663
RANGE-B
1 43772U 18099Q 22286.46460330 .00006289 00000-0 53937-3 0 9991
2 43772 97.6196 351.6809 0012471 219.3219 140.7099 14.97796171210697
RANGE-A
1 43773U 18099R 22286.41713265 .00002299 00000-0 20740-3 0 9998
2 43773 97.6008 348.3513 0012084 223.3869 136.6402 14.96446927210637
MOVE-II
1 43780U 18099Y 22286.43746406 .00007240 00000-0 60624-3 0 9997
2 43780 97.6114 351.1276 0012233 232.6094 127.4016 14.98676349210724
SNUSat 2
1 43782U 18099AA 22286.42638262 .00003276 00000-0 28836-3 0 9992
2 43782 97.6085 350.1695 0011323 221.4119 138.6246 14.97129775210689
SnugLite
1 43784U 18099AC 22286.44546491 .00004356 00000-0 37893-3 0 9991
2 43784 97.6038 349.8137 0013746 228.9725 131.0310 14.97392151210714
ITASat 1
1 43786U 18099AE 22286.44229792 .00003522 00000-0 30994-3 0 9994
2 43786 97.6103 350.6710 0013905 229.5057 130.4954 14.97066944210702
EAGLET 1
1 43790U 18099AJ 22286.46049130 .00003370 00000-0 29631-3 0 9994
2 43790 97.6098 351.2320 0011802 230.3892 129.6289 14.97153038210448
ESEO
1 43792U 18099AL 22286.44514925 .00001827 00000-0 16589-3 0 9996
2 43792 97.6048 350.2522 0012145 229.7943 130.2217 14.96430343210476
CSIM
1 43793U 18099AM 22286.42436818 .00006306 00000-0 51973-3 0 9992
2 43793 97.6156 352.1399 0010758 223.1287 136.9094 14.99349994210556
Astrocast 0.1
1 43798U 18099AS 22286.43368377 .00005482 00000-0 46348-3 0 9996
2 43798 97.6115 351.8716 0011316 209.1504 150.9088 14.98418728210776
JO-97
1 43803U 18099AX 22286.41684414 .00004111 00000-0 35518-3 0 9999
2 43803 97.6083 350.4423 0013134 227.5142 132.4971 14.97702618210723
Suomi 100
1 43804U 18099AY 22286.44340196 .00004222 00000-0 36590-3 0 9993
2 43804 97.6058 350.3641 0013938 228.3288 131.6742 14.97558693210739
Al Farabi 2
1 43805U 18099AZ 22286.78107226 .00007317 00000-0 61808-3 0 9994
2 43805 97.6093 351.3231 0013887 226.1143 133.8926 14.98312643210815
CHOMPTT
1 43855U 18104G 22286.16177871 .00013582 00000-0 47167-3 0 9994
2 43855 85.0343 332.5857 0015748 153.6335 206.5716 15.29513139212702
ISAT
1 43879U 18111D 22286.47206195 .00005600 00000-0 46992-3 0 9991
2 43879 97.6517 189.9213 0010618 283.4758 76.5281 14.98704703207342
UWE-4
1 43880U 18111E 22286.46419454 .00005084 00000-0 42589-3 0 9990
2 43880 97.6552 190.6888 0010669 284.8167 75.1873 14.98820343207379
Sparrow
1 43881U 18111F 22286.46826990 .00005476 00000-0 45598-3 0 9996
2 43881 97.6560 190.9676 0010721 280.5605 79.4410 14.99018373207384
Lume 1
1 43908U 18111AJ 22286.58667024 .00017563 00000-0 55483-3 0 9994
2 43908 97.1715 170.7194 0018076 18.9041 341.2869 15.32716275211477
FO-99
1 43937U 19003F 22286.39684634 .00020902 00000-0 63954-3 0 9995
2 43937 97.1204 315.3012 0021108 92.2274 268.1386 15.33636162208037
